This is the latest recevied weather packets stored in our database for station/object PY2SDN-13. If no packets are shown the sender has not sent any weather packets the latest 10 day(s).
| Time | Temp. | Humidity | Pressure | Rain* | Wind** | Luminosity | Snow |
|---|---|---|---|---|---|---|---|
| 1777526104 | 21.11° C | 26% | 1016.4 hPa | 0 mm | - | 0 W/m² | - |
| 1777525204 | 21.11° C | 26% | 1016.7 hPa | 0 mm | - | 0 W/m² | - |
| 1777524304 | 21.11° C | 26% | 1016.4 hPa | 0.25 mm | - | 0 W/m² | - |
| 1777523404 | 21.11° C | 26% | 1016.5 hPa | 0.51 mm | - | 0 W/m² | - |
| 1777522504 | 21.11° C | 26% | 1016.5 hPa | 1.02 mm | - | 0 W/m² | - |
| 1777521604 | 21.11° C | 26% | 1016.8 hPa | 1.02 mm | - | 0 W/m² | - |
| 1777520705 | 21.11° C | 26% | 1016.6 hPa | 0.51 mm | - | 0 W/m² | - |
| 1777519803 | 21.11° C | 26% | 1016.6 hPa | 0.25 mm | - | 0 W/m² | - |
| 1777518904 | 21.11° C | 26% | 1016.6 hPa | 0 mm | - | 0 W/m² | - |
| 1777518004 | 20.56° C | 26% | 1016.3 hPa | 0 mm | - | 0 W/m² | - |
| 1777517104 | 20.56° C | 26% | 1016.2 hPa | 0 mm | - | 0 W/m² | - |
| 1777516203 | 20.56° C | 26% | 1015.7 hPa | 0 mm | - | 0 W/m² | - |
| 1777515303 | 20.56° C | 26% | 1015.3 hPa | 0 mm | - | 0 W/m² | - |
| 1777514403 | 20.56° C | 26% | 1015.6 hPa | 0 mm | - | 0 W/m² | - |
| 1777513503 | 20.56° C | 26% | 1015.7 hPa | 0 mm | - | 0 W/m² | - |
| 1777512603 | 20.56° C | 26% | 1016.1 hPa | 0 mm | - | 0 W/m² | - |
| 1777511703 | 20.56° C | 26% | 1016.2 hPa | 0 mm | - | 0 W/m² | - |
| 1777510804 | 20.56° C | 26% | 1016.4 hPa | 0 mm | - | 0 W/m² | - |
| 1777509903 | 21.11° C | 26% | 1016 hPa | 0 mm | - | 0 W/m² | - |
| 1777509003 | 21.11° C | 26% | 1016 hPa | 0 mm | - | 0 W/m² | - |
| 1777508103 | 21.11° C | 26% | 1016.4 hPa | 0 mm | - | 0 W/m² | - |
| 1777507203 | 21.11° C | 26% | 1016.5 hPa | 0 mm | - | 0 W/m² | - |
| 1777506308 | 20.56° C | 26% | 1016.5 hPa | 0 mm | - | 0 W/m² | - |
| 1777505404 | 20.56° C | 26% | 1016.1 hPa | 0 mm | - | 0 W/m² | - |
| 1777504504 | 20.56° C | 26% | 1016.1 hPa | 0 mm | - | 0 W/m² | - |
* Rain latest hour (hover to see other rain measurements)
** Current wind speed in m/s (hover to see current wind gust speed)